[[{"header":{"parameterUnit":"m.s-1","parameterCategory":1,"la1":30.2991,"la2":30.254,"lo1":-89.0895,"lo2":-89.0444,"dy":0.0017,"dx":0.0017,"nx":28,"ny":28,"refTime":"2024-10-10T09:00:00:Z","depth":0,"parameterNumber":2,"parameterNumberName":"U-component_of_WINDS"},"data":[0,0,0,0,0,0,0,0,0,0,0,0,0,0,0,0,0,0,0,0,0,0,0,0,0,0,0,0,0,0,0,0,0,0,0,0,0,0,0,0,0,0,0,0,0,0,0,0,0,0,0,0,0,0,0,0,0,0,-3.8387,-3.8389,0,-3.8498,-3.8499,-3.8501,-3.8452,-3.845,-3.8447,-3.8444,-3.8561,-3.8567,-3.8572,0,0,0,0,0,0,0,0,0,0,0,0,0,-3.8138,-3.8143,-3.8387,-3.8389,-3.839,-3.8498,-3.85,-3.8501,-3.8453,-3.845,-3.8446,-3.8443,-3.8559,-3.8566,-3.8573,0,0,0,0,0,0,0,0,0,0,0,0,0,-3.8247,-3.8144,-3.8387,-3.8379,-3.8379,-3.8498,-3.85,-3.8501,-3.8454,-3.8449,-3.8445,-3.8442,-3.8557,-3.8565,-3.8574,-3.8708,0,0,-3.86,-3.8603,0,0,0,0,0,0,0,0,-3.8241,-3.8256,-3.8379,-3.838,-3.838,-3.8457,-3.8454,-3.8571,-3.8455,-3.8426,-3.8444,-3.844,-3.853,-3.8541,-3.857,-3.8713,-3.8718,-3.86,-3.8605,-3.8609,-3.8611,0,0,0,0,0,0,0,-3.8234,-3.8251,-3.8431,-3.8381,-3.8382,-3.8371,-3.8382,-3.8476,-3.8499,-3.8428,-3.8424,-3.8438,-3.853,-3.8562,-3.8573,-3.872,-3.86,-3.8608,-3.8613,-3.8616,-3.8981,-3.8985,0,0,0,0,0,0,-3.8226,-3.8245,-3.8428,-3.8435,-3.8299,-3.8379,-3.8391,-3.8437,-3.8498,-3.8504,-3.8441,-3.8435,-3.855,-3.8563,-3.8577,-3.8739,-3.8609,-3.8617,-3.8622,-3.8976,-3.8982,-3.8987,0,0,0,0,0,0,-3.822,-3.8242,-3.8423,-3.8339,-3.8361,-3.8387,-3.8439,-3.8441,-3.8473,-3.8509,-3.8513,-3.847,-3.8547,-3.8565,-3.8676,-3.8743,-3.8621,-3.8628,-3.8971,-3.8978,-3.8984,-3.9065,0,0,0,0,0,0,-3.8213,-3.8241,-3.8291,-3.8341,-3.8366,-3.8519,-3.8443,-3.8446,-3.8488,-3.8481,-3.8537,-3.8542,-3.8545,-3.8663,-3.8684,-3.8752,-3.8635,-3.8965,-3.8974,-3.8982,-3.9056,-3.9074,-3.9088,0,0,0,0,0,-3.8205,-3.8309,-3.8294,-3.8316,-3.8429,-3.8523,-3.8538,-3.8539,-3.8493,-3.8545,-3.8568,-3.854,-3.8732,-3.8675,-3.8698,-3.877,-3.8961,-3.8971,-3.8981,-3.9049,-3.907,-3.9088,0,0,0,0,0,0,-3.8267,-3.8316,-3.8299,-3.8422,-3.8469,-3.8515,-3.858,-3.8561,-3.8622,-3.8613,-3.8612,-3.8626,-3.8741,-3.8766,-3.8702,-3.8904,-3.8839,-3.8855,-3.8883,-3.8904,-3.8919,-3.8912,-3.8642,0,0,0,0,0,-3.8295,-3.8367,-3.8405,-3.8511,-3.8535,-3.8554,-3.8595,-3.8591,-3.864,-3.866,-3.869,-3.874,-3.8811,-3.8859,-3.8926,-3.9059,-3.9072,-3.912,-3.9136,-3.9149,-3.9163,-3.9238,-3.926,-3.9021,-3.902,-3.902,0,0,-3.8354,-3.8389,-3.8435,-3.8524,-3.856,-3.8636,-3.857,-3.8653,-3.8709,-3.8672,-3.8779,-3.8804,-3.8859,-3.8983,-3.9038,-3.9007,-3.9232,-3.9162,-3.9172,-3.9179,-3.9251,-3.9274,-3.9294,-3.9028,-3.9026,-3.9025,0,0,-3.8501,-3.8533,-3.8626,-3.8663,-3.8718,-3.873,-3.8752,-3.8802,-3.8816,-3.8923,-3.8898,-3.8966,-3.9088,-3.9129,-3.9166,-3.933,-3.9308,-3.9352,-3.9437,-3.951,-3.9529,-3.9546,-3.9606,-3.9628,-3.9366,-3.9366,-3.9366,0,-3.8567,-3.8679,-3.8676,-3.8761,-3.8802,-3.8772,-3.8866,-3.8903,-3.8978,-3.9008,-3.8971,-3.9126,-3.916,-3.9294,-3.9334,-3.9364,-3.9392,-3.9346,-3.9526,-3.9543,-3.9559,-3.9617,-3.9639,-3.9371,-3.937,-3.937,-3.9369,0,-3.8759,-3.8837,-3.8906,-3.8978,-3.9027,-3.9116,-3.9129,-3.9179,-3.9171,-3.9187,-3.9298,-3.9339,-3.9415,-3.9446,-3.944,-3.958,-3.956,-3.9525,-3.946,-3.9587,-3.9641,-3.9663,-3.9378,-3.9376,-3.9375,-3.9374,0,0,-3.8949,-3.9019,-3.9044,-3.9078,-3.9137,-3.9198,-3.9287,-3.936,-3.9404,-3.9457,-3.9533,-3.9638,-3.9607,-3.9649,-3.9647,-3.9711,-3.9841,-3.9668,-3.967,-3.9701,-4.0001,-4.0028,-4.0054,-3.9826,-3.983,-3.9834,-3.9997,0,-3.9101,-3.9256,-3.9257,-3.94,-3.9473,-3.9446,-3.9524,-3.9569,-3.9587,-3.9653,-3.9673,-3.9749,-3.97,-3.9726,-3.9787,-3.9812,-3.9902,-3.98,-3.9899,-3.9903,-3.9888,-4.0082,-4.0111,-4.0263,-4.0018,-4.0022,-4.0024,0,-3.9299,-3.9359,-3.9509,-3.9559,-3.959,-3.966,-3.9729,-3.9791,-3.9843,-3.9852,-3.99,-3.9889,-3.9981,-3.9913,-4.0042,-3.9973,-4.0014,-4.0032,-4.0038,-4.0049,-3.9973,-4.01,-4.0311,-4.0335,-4.0057,-4.0055,-4.0052,0,-3.9425,-3.9542,-3.9648,-3.9677,-3.9738,-3.9788,-3.9816,-3.9863,-3.9908,-3.9969,-3.9999,-4.0069,-4.0109,-4.0165,-4.0174,-4.0123,-4.0305,-4.0237,-4.0317,-4.0317,-4.0358,-4.0355,-4.058,-4.0381,-4.038,-4.038,-4.0379,0,-3.9596,-3.969,-3.9706,-3.9771,-3.9876,-3.9877,-3.9981,-4.0005,-4.0048,-4.0119,-4.0099,-4.0167,-4.0173,-4.0244,-4.0251,-4.0359,-4.0376,-4.0387,-4.0389,-4.039,-4.0389,-4.0418,-4.0409,-4.0386,-4.0384,-4.0383,-4.0382,0,-3.9755,-3.9769,-3.9883,-3.9931,-3.9945,-4.0021,-4.0063,-4.0126,-4.0142,-4.0232,-4.0253,-4.0279,-4.0361,-4.0375,-4.0471,-4.0476,-4.0606,-4.0595,-4.0588,-4.0587,-4.0668,-4.0661,-4.0921,-4.0956,-4.0731,-4.0733,-4.0735,0,-3.9864,-3.9936,-3.9992,-4.0038,-4.0068,-4.0141,-4.0187,-4.0191,-4.024,-4.0306,-4.0362,-4.0441,-4.0505,-4.0637,-4.0666,-4.074,-4.0732,-4.0818,-4.0743,-4.0743,-4.0736,-4.0733,-4.0741,-4.0833,-4.0836,-4.0838,-4.0839,0,-4.0058,-4.0061,-4.0128,-4.0198,-4.0253,-4.0308,-4.036,-4.0399,-4.041,-4.0467,-4.0549,-4.0599,-4.0697,-4.0777,-4.0851,-4.0881,-4.0864,-4.0862,-4.0885,-4.0889,-4.0883,-4.089,-4.063,-4.0857,-4.0855,-4.0854,-4.0853,-4.0852,-4.0197,-4.026,-4.031,-4.0385,-4.0424,-4.0474,-4.0537,-4.0561,-4.0629,-4.0709,-4.0707,-4.0799,-4.0851,-4.0949,-4.0984,-4.1057,-4.103,-4.1062,-4.1071,-4.1079,-4.1088,-4.0869,-4.107,-4.107,-4.1069,-4.1069,-4.1069,0,-4.0391,-4.0422,-4.0491,-4.0565,-4.0625,-4.0601,-4.0658,-4.071,-4.0791,-4.084,-4.0903,-4.1,-4.1078,-4.1113,-4.119,-4.1242,-4.1236,-4.1262,-4.126,-4.1268,-4.1107,-4.1081,-4.1266,-4.1266,-4.1266,-4.1266,-4.1266,-4.1266,-4.0499,-4.0606,-4.0615,-4.0742,-4.0772,-4.0861,-4.0896,-4.0943,-4.0983,-4.1091,-4.1156,-4.1177,-4.1222,-4.1302,-4.1374,-4.1382,-4.1412,-4.1443,-4.1448,-4.1298,-4.1278,-4.1259,-4.1235,-4.1449,-4.145,-4.1603,-4.1604,-4.1605]},{"header":{"parameterUnit":"m.s-1","parameterCategory":1,"la1":30.2991,"la2":30.254,"lo1":-89.0895,"lo2":-89.0444,"dy":0.0017,"dx":0.0017,"nx":28,"ny":28,"refTime":"2024-10-10T09:00:00:Z","depth":0,"parameterNumber":3,"parameterNumberName":"V-component_of_WINDS"},"data":[0,0,0,0,0,0,0,0,0,0,0,0,0,0,0,0,0,0,0,0,0,0,0,0,0,0,0,0,0,0,0,0,0,0,0,0,0,0,0,0,0,0,0,0,0,0,0,0,0,0,0,0,0,0,0,0,0,0,-1.8931,-1.893,0,-1.8868,-1.8867,-1.8867,-1.88,-1.88,-1.8799,-1.8798,-1.8733,-1.8732,-1.8731,0,0,0,0,0,0,0,0,0,0,0,0,0,-1.8993,-1.8992,-1.8931,-1.893,-1.893,-1.8868,-1.8867,-1.8866,-1.8801,-1.8799,-1.8798,-1.8797,-1.8733,-1.8732,-1.8731,0,0,0,0,0,0,0,0,0,0,0,0,0,-1.8952,-1.8992,-1.8931,-1.8889,-1.8885,-1.8868,-1.8867,-1.8866,-1.8801,-1.8799,-1.8798,-1.8797,-1.8733,-1.8732,-1.8731,-1.875,0,0,-1.8727,-1.8726,0,0,0,0,0,0,0,0,-1.8954,-1.895,-1.8896,-1.8892,-1.8887,-1.8841,-1.8865,-1.8827,-1.8801,-1.8833,-1.8798,-1.8796,-1.877,-1.8765,-1.8756,-1.8747,-1.8744,-1.8726,-1.8726,-1.8725,-1.8725,0,0,0,0,0,0,0,-1.8957,-1.8952,-1.8906,-1.8896,-1.889,-1.8873,-1.8866,-1.8858,-1.881,-1.883,-1.8825,-1.8818,-1.8767,-1.8758,-1.8754,-1.8743,-1.8727,-1.8725,-1.8725,-1.8724,-1.8746,-1.8747,0,0,0,0,0,0,-1.8966,-1.8955,-1.8908,-1.8904,-1.8918,-1.8873,-1.8865,-1.8857,-1.881,-1.8801,-1.882,-1.8816,-1.8761,-1.8756,-1.8752,-1.8771,-1.8725,-1.8724,-1.8723,-1.8745,-1.8746,-1.8748,0,0,0,0,0,0,-1.8968,-1.8963,-1.8911,-1.8928,-1.892,-1.8874,-1.8865,-1.8857,-1.8847,-1.8802,-1.8793,-1.8819,-1.8759,-1.8754,-1.8751,-1.8768,-1.8723,-1.8722,-1.8743,-1.8745,-1.8747,-1.881,0,0,0,0,0,0,-1.897,-1.8964,-1.8971,-1.8929,-1.8919,-1.8911,-1.8866,-1.8856,-1.8845,-1.8839,-1.8799,-1.8791,-1.8758,-1.8753,-1.875,-1.8765,-1.8721,-1.8741,-1.8744,-1.8746,-1.8806,-1.8814,-1.8821,0,0,0,0,0,-1.8973,-1.8992,-1.8972,-1.8967,-1.8928,-1.8913,-1.8907,-1.8869,-1.8847,-1.8854,-1.8824,-1.8792,-1.8767,-1.8754,-1.8749,-1.8764,-1.874,-1.8743,-1.8746,-1.8803,-1.8813,-1.8821,0,0,0,0,0,0,-1.9037,-1.8985,-1.8963,-1.8969,-1.8946,-1.8901,-1.8909,-1.888,-1.8862,-1.8858,-1.881,-1.8802,-1.8804,-1.8784,-1.877,-1.878,-1.8749,-1.8751,-1.8794,-1.8802,-1.881,-1.8814,-1.872,0,0,0,0,0,-1.9052,-1.9045,-1.8999,-1.9009,-1.8998,-1.8956,-1.8948,-1.892,-1.8894,-1.8884,-1.8854,-1.883,-1.8816,-1.8808,-1.8793,-1.8803,-1.8793,-1.8811,-1.8819,-1.8825,-1.8827,-1.8831,-1.8838,-1.8758,-1.8758,-1.8758,0,0,-1.9083,-1.9054,-1.9052,-1.9021,-1.9,-1.8993,-1.8948,-1.8942,-1.8936,-1.8883,-1.8878,-1.8856,-1.8825,-1.8829,-1.8829,-1.8812,-1.8847,-1.8829,-1.8834,-1.8833,-1.8835,-1.8842,-1.8849,-1.876,-1.876,-1.8759,0,0,-1.9135,-1.9113,-1.9118,-1.9098,-1.9066,-1.9037,-1.9039,-1.8998,-1.8981,-1.8976,-1.8936,-1.8928,-1.8905,-1.8885,-1.8872,-1.8916,-1.8886,-1.8912,-1.895,-1.8954,-1.896,-1.8966,-1.8981,-1.8987,-1.8915,-1.8915,-1.8915,0,-1.9178,-1.9166,-1.9124,-1.9121,-1.9108,-1.906,-1.9064,-1.9046,-1.9011,-1.9004,-1.8985,-1.8955,-1.8931,-1.893,-1.894,-1.8931,-1.8931,-1.8917,-1.8963,-1.8968,-1.8972,-1.8986,-1.8992,-1.8919,-1.8918,-1.8918,-1.8918,0,-1.9219,-1.9211,-1.9219,-1.9186,-1.9175,-1.9176,-1.9134,-1.9127,-1.91,-1.9073,-1.9068,-1.9038,-1.9015,-1.9013,-1.8987,-1.9007,-1.8997,-1.8972,-1.8939,-1.8984,-1.8996,-1.9001,-1.8924,-1.8922,-1.8921,-1.892,0,0,-1.9311,-1.9255,-1.9259,-1.9243,-1.9204,-1.9197,-1.9195,-1.9173,-1.9168,-1.9146,-1.9143,-1.9124,-1.91,-1.9085,-1.9056,-1.9059,-1.9096,-1.9033,-1.9031,-1.9045,-1.9116,-1.9135,-1.9142,-1.9075,-1.9076,-1.9077,-1.9118,0,-1.9356,-1.935,-1.9313,-1.9318,-1.9309,-1.9263,-1.9261,-1.9237,-1.9212,-1.9201,-1.9172,-1.916,-1.9129,-1.912,-1.9121,-1.9091,-1.9109,-1.9088,-1.9072,-1.9072,-1.9081,-1.9149,-1.917,-1.921,-1.9123,-1.9123,-1.9124,0,-1.9409,-1.9389,-1.9394,-1.9354,-1.9349,-1.9349,-1.9325,-1.9315,-1.9287,-1.9268,-1.9251,-1.9219,-1.9213,-1.9183,-1.9175,-1.9161,-1.9152,-1.9136,-1.9137,-1.9134,-1.9101,-1.9148,-1.9222,-1.9228,-1.9131,-1.9131,-1.913,0,-1.9475,-1.945,-1.9449,-1.9437,-1.9391,-1.9392,-1.9373,-1.9342,-1.9332,-1.9311,-1.9303,-1.9283,-1.9271,-1.9255,-1.9218,-1.9199,-1.9214,-1.918,-1.9198,-1.9199,-1.9203,-1.9203,-1.9277,-1.9198,-1.9198,-1.9198,-1.9198,0,-1.953,-1.9534,-1.9478,-1.9478,-1.9481,-1.9437,-1.9441,-1.9418,-1.9391,-1.9385,-1.9343,-1.9338,-1.9288,-1.9277,-1.9248,-1.9245,-1.9241,-1.9225,-1.9217,-1.9229,-1.9231,-1.9222,-1.9218,-1.9199,-1.9199,-1.9199,-1.9198,0,-1.9604,-1.9567,-1.9563,-1.952,-1.9509,-1.9513,-1.9476,-1.9473,-1.9445,-1.9438,-1.9433,-1.939,-1.9374,-1.9335,-1.931,-1.929,-1.9295,-1.9281,-1.9305,-1.93,-1.932,-1.9319,-1.9391,-1.9398,-1.9315,-1.9316,-1.9316,0,-1.9642,-1.9644,-1.9601,-1.9594,-1.9576,-1.9566,-1.9554,-1.9511,-1.9501,-1.9468,-1.9469,-1.9451,-1.9434,-1.9412,-1.9377,-1.9357,-1.9342,-1.9368,-1.9339,-1.935,-1.9342,-1.9342,-1.9342,-1.9375,-1.9376,-1.9377,-1.9378,0,-1.9712,-1.9693,-1.9679,-1.9658,-1.9645,-1.9626,-1.9605,-1.9602,-1.9553,-1.9544,-1.9528,-1.9515,-1.9488,-1.947,-1.9445,-1.9425,-1.9393,-1.9388,-1.939,-1.9402,-1.9416,-1.9409,-1.9323,-1.9386,-1.9385,-1.9385,-1.9384,-1.9384,-1.9769,-1.9768,-1.9738,-1.9723,-1.9702,-1.9683,-1.9679,-1.965,-1.9636,-1.9612,-1.9587,-1.9574,-1.9544,-1.9507,-1.9489,-1.9477,-1.9461,-1.9465,-1.9466,-1.9468,-1.9473,-1.9418,-1.9472,-1.9472,-1.9472,-1.9471,-1.9471,0,-1.9837,-1.9815,-1.9801,-1.9773,-1.9761,-1.9732,-1.9707,-1.9699,-1.9688,-1.9663,-1.9647,-1.9628,-1.961,-1.9575,-1.9553,-1.9551,-1.9536,-1.9547,-1.9547,-1.9542,-1.9489,-1.9489,-1.9559,-1.9559,-1.9559,-1.9559,-1.9559,-1.9559,-1.9871,-1.9868,-1.9846,-1.9833,-1.981,-1.9797,-1.9785,-1.9767,-1.9747,-1.9728,-1.9713,-1.969,-1.966,-1.9637,-1.9619,-1.9608,-1.9603,-1.9618,-1.9603,-1.9554,-1.9546,-1.9538,-1.9537,-1.9617,-1.9617,-1.9657,-1.9658,-1.9658]}]]